SBIRS GEO-1 (USA 230)

Last updated on Tue Sep 22 2026 00:03:12 GMT+0000 (Coordinated Universal Time)

1 37481U 11019A 26264.57062439 .00000099 00000+0 00000+0 0 9997 2 37481 4.7467 52.9804 0001794 133.4843 71.2256 1.00272374 56367
UTC large
Height (km)
Speed (km/s)
/
Latitude / Longitude
Inclination (degrees)
Orbital Period (minutes)
Azimuth
Elevation
Range (km)
Doppler Factor

Next 0 passes for location: London (51.5072 / 0.1276)

No passes found over London.
SBIRS GEO-1 (USA 230)